[[{"header":{"parameterUnit":"m.s-1","parameterCategory":1,"la1":30.2991,"la2":30.254,"lo1":-89.0895,"lo2":-89.0444,"dy":0.0017,"dx":0.0017,"nx":28,"ny":28,"refTime":"2024-06-03T21:00:00:Z","depth":0,"parameterNumber":2,"parameterNumberName":"U-component_of_WINDS"},"data":[0,0,0,0,0,0,0,0,0,0,0,0,0,0,0,0,0,0,0,0,0,0,0,0,0,0,0,0,0,0,0,0,0,0,0,0,0,0,0,0,0,0,0,0,0,0,0,0,0,0,0,0,0,0,0,0,0,0,-0.035,-0.035,0,-0.0338,-0.0338,-0.0337,-0.033,-0.033,-0.033,-0.033,-0.0316,-0.0316,-0.0316,0,0,0,0,0,0,0,0,0,0,0,0,0,-0.0369,-0.0368,-0.035,-0.035,-0.035,-0.0338,-0.0338,-0.0337,-0.033,-0.033,-0.033,-0.033,-0.0316,-0.0316,-0.0316,0,0,0,0,0,0,0,0,0,0,0,0,0,-0.0359,-0.0368,-0.035,-0.0345,-0.0345,-0.0338,-0.0337,-0.0337,-0.033,-0.033,-0.033,-0.033,-0.0317,-0.0316,-0.0315,-0.0312,0,0,-0.0314,-0.0314,0,0,0,0,0,0,0,0,-0.0359,-0.0358,-0.0346,-0.0346,-0.0345,-0.0336,-0.0339,-0.0329,-0.033,-0.0336,-0.033,-0.033,-0.0323,-0.0322,-0.0319,-0.0312,-0.0311,-0.0314,-0.0313,-0.0313,-0.0313,0,0,0,0,0,0,0,-0.036,-0.0359,-0.0345,-0.0346,-0.0345,-0.0344,-0.0342,-0.0337,-0.0329,-0.0335,-0.0335,-0.0333,-0.0322,-0.032,-0.0319,-0.0311,-0.0314,-0.0313,-0.0313,-0.0313,-0.0302,-0.0302,0,0,0,0,0,0,-0.0362,-0.0359,-0.0346,-0.0345,-0.0352,-0.0343,-0.0342,-0.0339,-0.033,-0.0328,-0.0333,-0.0333,-0.0321,-0.032,-0.0318,-0.0315,-0.0313,-0.0313,-0.0312,-0.0302,-0.0302,-0.0302,0,0,0,0,0,0,-0.0362,-0.0361,-0.0346,-0.0352,-0.035,-0.0343,-0.034,-0.0338,-0.0336,-0.0328,-0.0327,-0.0332,-0.0321,-0.0319,-0.0314,-0.0314,-0.0312,-0.0312,-0.0302,-0.0302,-0.0302,-0.0307,0,0,0,0,0,0,-0.0363,-0.0361,-0.0359,-0.0352,-0.035,-0.0342,-0.034,-0.0338,-0.0335,-0.0334,-0.0327,-0.0325,-0.0321,-0.0315,-0.0314,-0.0313,-0.0312,-0.0302,-0.0302,-0.0302,-0.0307,-0.0308,-0.0308,0,0,0,0,0,-0.0363,-0.0361,-0.0359,-0.0358,-0.0348,-0.0342,-0.0341,-0.0336,-0.0335,-0.0334,-0.0329,-0.0325,-0.0315,-0.0315,-0.0313,-0.0313,-0.0302,-0.0302,-0.0302,-0.0307,-0.0308,-0.0308,0,0,0,0,0,0,-0.0367,-0.036,-0.0358,-0.0353,-0.0349,-0.0341,-0.0339,-0.0337,-0.0332,-0.0331,-0.0325,-0.0324,-0.032,-0.0316,-0.0316,-0.031,-0.0308,-0.0308,-0.0312,-0.0313,-0.0313,-0.0314,-0.0311,0,0,0,0,0,-0.0368,-0.0364,-0.0358,-0.0354,-0.0352,-0.0346,-0.0343,-0.034,-0.0335,-0.0333,-0.0328,-0.0323,-0.0319,-0.0316,-0.0311,-0.0307,-0.0306,-0.0306,-0.0306,-0.0307,-0.0306,-0.0305,-0.0305,-0.0302,-0.0302,-0.0302,0,0,-0.0369,-0.0364,-0.0362,-0.0355,-0.0351,-0.0347,-0.0344,-0.034,-0.0338,-0.0332,-0.0327,-0.0324,-0.0318,-0.0314,-0.0312,-0.0311,-0.0307,-0.0307,-0.0307,-0.0307,-0.0305,-0.0305,-0.0306,-0.0302,-0.0302,-0.0302,0,0,-0.0368,-0.0364,-0.0361,-0.0357,-0.0352,-0.0348,-0.0348,-0.0341,-0.0339,-0.0334,-0.0331,-0.0327,-0.032,-0.0316,-0.0313,-0.0313,-0.031,-0.0312,-0.0314,-0.0312,-0.0313,-0.0313,-0.0313,-0.0313,-0.0312,-0.0312,-0.0312,0,-0.0369,-0.0363,-0.0359,-0.0356,-0.0353,-0.0349,-0.0346,-0.0343,-0.0336,-0.0335,-0.0334,-0.0325,-0.0321,-0.0316,-0.0316,-0.0314,-0.0313,-0.0312,-0.0313,-0.0313,-0.0313,-0.0313,-0.0314,-0.0312,-0.0312,-0.0312,-0.0312,0,-0.0365,-0.0362,-0.036,-0.0355,-0.0352,-0.0348,-0.0344,-0.0342,-0.034,-0.0336,-0.0332,-0.0328,-0.0322,-0.0321,-0.0318,-0.0317,-0.0316,-0.0314,-0.0312,-0.0314,-0.0314,-0.0314,-0.0313,-0.0312,-0.0312,-0.0312,0,0,-0.0365,-0.0359,-0.0358,-0.0356,-0.0351,-0.0348,-0.0345,-0.0341,-0.0339,-0.0335,-0.0333,-0.0327,-0.0326,-0.0323,-0.032,-0.0319,-0.032,-0.0317,-0.0317,-0.0318,-0.0318,-0.0319,-0.0319,-0.0318,-0.0318,-0.0318,-0.0319,0,-0.0364,-0.0358,-0.0355,-0.0351,-0.0348,-0.0346,-0.0343,-0.034,-0.0337,-0.0334,-0.0332,-0.0328,-0.0326,-0.0325,-0.0323,-0.032,-0.032,-0.032,-0.0316,-0.0316,-0.0317,-0.0319,-0.032,-0.0321,-0.0319,-0.0319,-0.0319,0,-0.036,-0.0357,-0.0353,-0.035,-0.0348,-0.0346,-0.0343,-0.034,-0.0336,-0.0335,-0.0332,-0.033,-0.0327,-0.0326,-0.0322,-0.0323,-0.0321,-0.0319,-0.0319,-0.0318,-0.0317,-0.0318,-0.0321,-0.0321,-0.0319,-0.0319,-0.0319,0,-0.0361,-0.0356,-0.0353,-0.0351,-0.0347,-0.0345,-0.0343,-0.034,-0.0338,-0.0335,-0.0334,-0.0331,-0.0329,-0.0327,-0.0323,-0.0323,-0.032,-0.0319,-0.0319,-0.0319,-0.0318,-0.0318,-0.032,-0.0318,-0.0318,-0.0318,-0.0318,0,-0.0359,-0.0356,-0.0353,-0.0351,-0.0349,-0.0346,-0.0344,-0.0342,-0.0339,-0.0337,-0.0335,-0.0333,-0.0329,-0.0327,-0.0324,-0.0322,-0.0321,-0.032,-0.0319,-0.032,-0.032,-0.0318,-0.0318,-0.0318,-0.0318,-0.0318,-0.0318,0,-0.0358,-0.0356,-0.0353,-0.0349,-0.0349,-0.0347,-0.0344,-0.0342,-0.034,-0.0338,-0.0337,-0.0334,-0.0331,-0.0328,-0.0325,-0.0323,-0.0321,-0.032,-0.0322,-0.0322,-0.0322,-0.0322,-0.0323,-0.0323,-0.0321,-0.0321,-0.0321,0,-0.0357,-0.0355,-0.0352,-0.0351,-0.0349,-0.0347,-0.0345,-0.0343,-0.0341,-0.0338,-0.0337,-0.0335,-0.0332,-0.0329,-0.0326,-0.0324,-0.0322,-0.0323,-0.0322,-0.0323,-0.0322,-0.0322,-0.0322,-0.0323,-0.0323,-0.0323,-0.0323,0,-0.0355,-0.0354,-0.0352,-0.035,-0.0348,-0.0346,-0.0344,-0.0343,-0.0341,-0.0339,-0.0337,-0.0335,-0.0333,-0.033,-0.0328,-0.0326,-0.0324,-0.0324,-0.0323,-0.0324,-0.0325,-0.0324,-0.0323,-0.0323,-0.0323,-0.0323,-0.0323,-0.0323,-0.0354,-0.0352,-0.035,-0.0348,-0.0347,-0.0345,-0.0344,-0.0343,-0.0341,-0.0338,-0.0337,-0.0335,-0.0333,-0.033,-0.0328,-0.0327,-0.0326,-0.0326,-0.0326,-0.0325,-0.0326,-0.0326,-0.0326,-0.0326,-0.0326,-0.0326,-0.0326,0,-0.0351,-0.035,-0.0349,-0.0347,-0.0345,-0.0345,-0.0343,-0.0342,-0.034,-0.0338,-0.0337,-0.0335,-0.0333,-0.0331,-0.0329,-0.0328,-0.0328,-0.0328,-0.0328,-0.0327,-0.0326,-0.0327,-0.0329,-0.0329,-0.0329,-0.0329,-0.0329,-0.0329,-0.035,-0.0348,-0.0348,-0.0345,-0.0344,-0.0342,-0.0341,-0.034,-0.0339,-0.0337,-0.0336,-0.0335,-0.0333,-0.0332,-0.033,-0.033,-0.0329,-0.0329,-0.0329,-0.0328,-0.0327,-0.0327,-0.0327,-0.0329,-0.0329,-0.033,-0.033,-0.033]},{"header":{"parameterUnit":"m.s-1","parameterCategory":1,"la1":30.2991,"la2":30.254,"lo1":-89.0895,"lo2":-89.0444,"dy":0.0017,"dx":0.0017,"nx":28,"ny":28,"refTime":"2024-06-03T21:00:00:Z","depth":0,"parameterNumber":3,"parameterNumberName":"V-component_of_WINDS"},"data":[0,0,0,0,0,0,0,0,0,0,0,0,0,0,0,0,0,0,0,0,0,0,0,0,0,0,0,0,0,0,0,0,0,0,0,0,0,0,0,0,0,0,0,0,0,0,0,0,0,0,0,0,0,0,0,0,0,0,5.0602,5.0602,0,5.0608,5.0608,5.0608,5.0612,5.0612,5.0612,5.0612,5.0618,5.0618,5.0618,0,0,0,0,0,0,0,0,0,0,0,0,0,5.0595,5.0595,5.0602,5.0602,5.0602,5.0608,5.0608,5.0608,5.0612,5.0612,5.0612,5.0612,5.0618,5.0618,5.0618,0,0,0,0,0,0,0,0,0,0,0,0,0,5.0599,5.0595,5.0602,5.0605,5.0605,5.0608,5.0608,5.0608,5.0612,5.0612,5.0612,5.0612,5.0618,5.0618,5.0618,5.0618,0,0,5.0618,5.0618,0,0,0,0,0,0,0,0,5.0599,5.0599,5.0605,5.0605,5.0605,5.0609,5.0607,5.0611,5.0612,5.061,5.0612,5.0612,5.0615,5.0615,5.0616,5.0618,5.0618,5.0618,5.0618,5.0618,5.0619,0,0,0,0,0,0,0,5.0598,5.0599,5.0604,5.0605,5.0605,5.0606,5.0607,5.0608,5.0612,5.061,5.061,5.0611,5.0615,5.0616,5.0616,5.0618,5.0618,5.0618,5.0619,5.0619,5.062,5.062,0,0,0,0,0,0,5.0598,5.0599,5.0604,5.0605,5.0602,5.0606,5.0607,5.0608,5.0612,5.0612,5.0611,5.0611,5.0616,5.0616,5.0616,5.0616,5.0618,5.0619,5.0619,5.062,5.062,5.062,0,0,0,0,0,0,5.0597,5.0598,5.0604,5.0602,5.0602,5.0606,5.0607,5.0608,5.0609,5.0612,5.0613,5.0611,5.0616,5.0616,5.0617,5.0617,5.0619,5.0619,5.062,5.062,5.062,5.0616,0,0,0,0,0,0,5.0597,5.0598,5.0598,5.0602,5.0603,5.0605,5.0607,5.0608,5.0609,5.061,5.0613,5.0613,5.0616,5.0617,5.0617,5.0617,5.0619,5.062,5.062,5.062,5.0616,5.0616,5.0615,0,0,0,0,0,5.0597,5.0597,5.0598,5.0599,5.0603,5.0605,5.0605,5.0608,5.0609,5.0609,5.0611,5.0613,5.0617,5.0617,5.0618,5.0617,5.062,5.062,5.062,5.0616,5.0616,5.0615,0,0,0,0,0,0,5.0593,5.0597,5.0599,5.06,5.0602,5.0605,5.0606,5.0607,5.0609,5.0609,5.0613,5.0613,5.0614,5.0616,5.0616,5.0617,5.0619,5.0618,5.0616,5.0615,5.0615,5.0615,5.0619,0,0,0,0,0,5.0592,5.0593,5.0597,5.0597,5.0598,5.0602,5.0603,5.0605,5.0607,5.0608,5.061,5.0612,5.0614,5.0615,5.0616,5.0616,5.0617,5.0616,5.0616,5.0616,5.0615,5.0616,5.0615,5.0619,5.0619,5.0619,0,0,5.059,5.0593,5.0593,5.0597,5.0599,5.06,5.0603,5.0604,5.0605,5.0608,5.0609,5.0611,5.0613,5.0614,5.0615,5.0615,5.0615,5.0615,5.0615,5.0615,5.0615,5.0615,5.0615,5.0619,5.0619,5.0619,0,0,5.0587,5.059,5.059,5.0592,5.0595,5.0597,5.0597,5.0601,5.0602,5.0604,5.0606,5.0607,5.061,5.0611,5.0613,5.0611,5.0612,5.0611,5.0609,5.0609,5.0609,5.0609,5.0608,5.0608,5.0611,5.0611,5.0611,0,5.0585,5.0587,5.059,5.0591,5.0593,5.0596,5.0597,5.0598,5.0601,5.0602,5.0603,5.0606,5.0608,5.0609,5.0609,5.061,5.061,5.0611,5.0609,5.0608,5.0608,5.0608,5.0607,5.0611,5.0611,5.0611,5.0611,0,5.0584,5.0585,5.0585,5.0588,5.059,5.0591,5.0594,5.0595,5.0597,5.0599,5.06,5.0602,5.0604,5.0605,5.0607,5.0606,5.0607,5.0608,5.061,5.0608,5.0607,5.0607,5.0611,5.0611,5.0611,5.0611,0,0,5.0578,5.0584,5.0584,5.0585,5.0589,5.059,5.0591,5.0593,5.0594,5.0596,5.0596,5.0598,5.06,5.0601,5.0603,5.0603,5.0602,5.0605,5.0605,5.0604,5.0601,5.06,5.06,5.0603,5.0603,5.0603,5.0601,0,5.0576,5.0578,5.0581,5.0582,5.0584,5.0587,5.0588,5.059,5.0592,5.0593,5.0595,5.0597,5.0599,5.0599,5.06,5.0602,5.0601,5.0602,5.0603,5.0604,5.0603,5.0599,5.0598,5.0596,5.0601,5.0601,5.0601,0,5.0574,5.0576,5.0578,5.0581,5.0582,5.0582,5.0585,5.0586,5.0588,5.059,5.0591,5.0593,5.0594,5.0596,5.0597,5.0598,5.0599,5.06,5.06,5.06,5.0602,5.0599,5.0595,5.0595,5.06,5.06,5.06,0,5.057,5.0573,5.0575,5.0576,5.058,5.058,5.0582,5.0584,5.0586,5.0587,5.0588,5.059,5.0591,5.0593,5.0595,5.0596,5.0596,5.0598,5.0597,5.0597,5.0597,5.0597,5.0593,5.0598,5.0598,5.0598,5.0598,0,5.0568,5.0568,5.0573,5.0573,5.0574,5.0577,5.0578,5.058,5.0582,5.0583,5.0586,5.0587,5.059,5.0592,5.0594,5.0594,5.0595,5.0596,5.0596,5.0596,5.0595,5.0596,5.0596,5.0598,5.0598,5.0598,5.0598,0,5.0563,5.0566,5.0568,5.0572,5.0573,5.0573,5.0576,5.0577,5.0579,5.058,5.0581,5.0584,5.0585,5.0588,5.0591,5.0592,5.0592,5.0593,5.0591,5.0592,5.0591,5.0591,5.0587,5.0587,5.0591,5.0591,5.0591,0,5.0561,5.0562,5.0566,5.0567,5.0568,5.057,5.0571,5.0574,5.0576,5.0578,5.0579,5.0581,5.0582,5.0584,5.0587,5.0589,5.059,5.0588,5.059,5.0589,5.0589,5.0589,5.0589,5.0588,5.0588,5.0588,5.0588,0,5.0558,5.0559,5.0561,5.0563,5.0565,5.0567,5.0569,5.0569,5.0573,5.0574,5.0576,5.0577,5.0579,5.0581,5.0583,5.0585,5.0587,5.0587,5.0587,5.0586,5.0585,5.0585,5.059,5.0587,5.0587,5.0587,5.0587,5.0587,5.0554,5.0555,5.0558,5.056,5.0562,5.0564,5.0564,5.0567,5.0568,5.0571,5.0572,5.0574,5.0576,5.0579,5.0581,5.0582,5.0583,5.0583,5.0583,5.0583,5.0582,5.0585,5.0582,5.0582,5.0582,5.0582,5.0582,0,5.0551,5.0553,5.0555,5.0557,5.0559,5.0561,5.0563,5.0564,5.0565,5.0568,5.0569,5.0571,5.0573,5.0575,5.0577,5.0578,5.0579,5.0578,5.0578,5.0578,5.0581,5.0581,5.0577,5.0577,5.0577,5.0577,5.0577,5.0577,5.0549,5.055,5.0552,5.0554,5.0556,5.0558,5.0559,5.0561,5.0562,5.0564,5.0566,5.0568,5.057,5.0572,5.0574,5.0574,5.0575,5.0574,5.0575,5.0578,5.0578,5.0578,5.0578,5.0574,5.0574,5.0572,5.0572,5.0572]}]]